Flag for Argentina Weather past 2 weeks in Bahía Blanca, Buenos Aires, Argentina

Now
54 °F

Clear.


Feels Like: 54 °F
Forecast: N/A
Wind: No wind

Location: Mar Del Plata Aerodrome


UV Index: N/A

Visibility: 10 mi


Pressure: 30.07 "Hg

Humidity: 72%

Dew point: 45 °F

Location of Bahía BlancaLocation

Historic Weather in Bahía Blanca

°F

Bahía Blanca temperature yesterday

Maximum temperature yesterday: 61 °F (at 11:00 AM)
Minimum temperature yesterday: 39 °F (at 10:00 PM)
Average temperature yesterday: 50 °F

Past Weeks' High & Low Weather Summary

 TemperatureHumidityPressure
High75 °F (Apr 8, 10:00 AM)100% (Apr 5, 8:00 PM)30.24 "Hg (Apr 5, 8:00 PM)
Low36 °F (Apr 18, 7:00 AM)34% (Apr 20, 4:00 PM)29.42 "Hg (Apr 9, 1:00 AM)
Average56 °F80%29.91 "Hg
* Reported Apr 5 7:00 PM — Apr 20 7:00 PM, Bahía Blanca, Weather by CustomWeather, © 2014

Note: Actual official high and low records may vary slightly from our data, if they occured in-between our weather recording intervals... More about our weather records

Advertising

Historic Weather Conditions — Data for Previous 24 hours

 ConditionsComfort  
Time TempWeatherWind HumidityBarometerVisibility
7:00 PM
Apr 20
54 °FClear.No wind72%30.07 "Hg10 mi
6:00 PM55 °FClear.5 mph63%30.07 "Hg10 mi
5:00 PM63 °FSunny.7 mph45%30.09 "Hg10 mi
4:00 PM64 °FSunny.12 mph34%30.09 "Hg10 mi
3:00 PM63 °FPassing clouds.7 mph42%30.09 "HgN/A
2:00 PM63 °FSunny.16 mph39%30.12 "Hg10 mi
1:00 PM61 °FSunny.12 mph42%30.15 "Hg10 mi
12:00 PM59 °FSunny.9 mph48%30.18 "Hg10 mi
11:00 AM55 °FSunny.9 mph59%30.18 "Hg10 mi
10:00 AM48 °FSunny.3 mph82%30.21 "Hg10 mi
9:00 AM43 °FSunny.3 mph81%30.21 "Hg10 mi
8:00 AM37 °FSunny.No wind93%30.18 "Hg10 mi
7:00 AM37 °FSunny.No wind87%30.21 "Hg10 mi
6:00 AM37 °FClear.5 mph87%30.18 "Hg10 mi
5:00 AM36 °FClear.No wind93%30.18 "Hg10 mi
4:00 AM39 °FClear.No wind87%30.21 "Hg10 mi
3:00 AM39 °FClear.No wind87%30.21 "Hg10 mi
2:00 AM39 °FClear.6 mph87%30.24 "Hg10 mi
1:00 AM39 °FClear.No wind93%30.24 "Hg10 mi
12:00 AM39 °FClear.No wind93%30.21 "Hg10 mi
11:00 PM
Apr 19
41 °FClear.No wind93%30.21 "Hg10 mi
10:00 PM39 °FClear.No wind87%30.21 "Hg5 mi
9:00 PM43 °FFog.No wind81%30.18 "Hg3 mi
8:00 PM48 °FClear.No wind76%30.18 "Hg5 mi
Weather by CustomWeather, © 2014

See weather overview